Tracking 30056 objects as of 10-Dec-2024
HD Live streaming from Space Station
objects crossing your sky now

STARLINK-6119

Track STARLINK-6119 now!
10-day predictions
STARLINK-6119 is classified as:


NORAD ID: 56125
Int'l Code: 2023-046AK
Perigee: 565.3 km
Apogee: 567.2 km
Inclination: 43.0 °
Period: 95.8 minutes
Semi major axis: 6937 km
RCS: Unknown
Launch date: March 29, 2023
Source: United States (US)
Launch site: AIR FORCE EASTERN TEST RANGE (AFETR)
Your satellite tracking list
Your tracking list is empty




NASA's NSSDC Master Catalog

Two Line Element Set (TLE):
1 56125U 23046AK  24345.01519149 -.00001031  00000-0 -61290-4 0  9991
2 56125  43.0037  96.8469 0001331 274.2107  85.8583 15.02523339 94352
Source of the keplerian elements: AFSPC